Flag Weather past 2 weeks in Beirut, Lebanon

Now
70 °F

Light rain. Broken clouds.


Feels Like: 70 °F
Forecast: 66 / 71 °F
Wind: 10 mph from West

Location: Beirut Airport

Current Time: Oct 31, 2014 at 3:03:20 PM

Latest Report: Oct 31, 2014 at 2:00 PM


Visibility: 5 mi

Pressure: 29.95 "Hg

Humidity: 73%

Dew point: 61 °F

Location of BeirutLocation

Historic Weather in Beirut — Graph

°F

Beirut temperature yesterday

Maximum temperature yesterday: 77 °F (at 12:00 PM)
Minimum temperature yesterday: 68 °F (at 11:00 PM)
Average temperature yesterday: 73 °F

Past Weeks' High & Low Weather Summary

 TemperatureHumidityPressure
High82 °F (Oct 25, 2:00 PM)94% (Oct 19, 1:00 PM)30.12 "Hg (Oct 19, 1:00 PM)
Low64 °F (Oct 21, 12:00 AM)33% (Oct 20, 2:00 PM)29.77 "Hg (Oct 19, 3:00 PM)
Average73 °F57%30.00 "Hg
* Reported Oct 16 2:00 PM — Oct 31 1:00 PM, Beirut, Weather by CustomWeather, © 2014

Note: Actual official high and low records may vary slightly from our data, if they occured in-between our weather recording intervals... More about our weather records

Advertising

Beirut weather history for previous 24 hours

 ConditionsComfort  
Time TempWeatherWind HumidityBarometerVisibility
1:00 PM
Oct 31
73 °FRain. Scattered clouds.8 mph50%29.92 "Hg5 mi
12:00 PM75 °FScattered clouds.5 mph44%29.92 "Hg5 mi
11:00 AM70 °FRain. Partly sunny.6 mph60%29.92 "Hg4 mi
10:00 AM72 °FRain. Partly sunny.8 mph61%29.95 "Hg3 mi
9:00 AM72 °FPartly sunny.5 mph57%29.92 "Hg4 mi
8:00 AM66 °FScattered clouds.5 mph68%29.95 "Hg5 mi
7:00 AM64 °FRain showers. Partly sunny.9 mph78%29.95 "Hg2 mi
6:00 AM64 °FRain showers. Partly sunny.5 mph78%29.95 "Hg2 mi
5:00 AM68 °FRain showers. Passing clouds.5 mph73%29.92 "Hg5 mi
4:00 AM70 °FPassing clouds.3 mph60%29.92 "Hg5 mi
3:00 AM70 °FPassing clouds.3 mph64%29.92 "Hg5 mi
2:00 AM68 °FPassing clouds.5 mph69%29.92 "Hg5 mi
1:00 AM68 °FPassing clouds.6 mph69%29.92 "Hg5 mi
12:00 AM68 °FPassing clouds.No wind69%29.92 "Hg5 mi
11:00 PM
Oct 30
68 °FPassing clouds.8 mph73%29.95 "Hg5 mi
10:00 PM72 °FPassing clouds.12 mph47%29.95 "Hg5 mi
9:00 PM72 °FPassing clouds.8 mph65%29.95 "Hg5 mi
8:00 PM72 °FPassing clouds.7 mph65%29.95 "Hg5 mi
7:00 PM73 °FPassing clouds.5 mph61%29.95 "Hg5 mi
6:00 PM73 °FPassing clouds.7 mph57%29.95 "Hg5 mi
5:00 PM73 °FPassing clouds.5 mph53%29.95 "HgN/A
4:00 PM75 °FPartly sunny.7 mph50%29.95 "HgN/A
3:00 PM77 °FScattered clouds.7 mph54%29.95 "HgN/A
Weather by CustomWeather, © 2014

See weather overviewHow to use our weather pages